Вернуться в каталог

COSMOS 1275 DEB

АктивенPO
NORAD 12766·DEBRIS·🇷🇺 Russia

Запущен Jun 4, 1981 с Plesetsk Cosmodrome

Loading…

Ближайшие Пролёты (ближайшие 24 часа)

TLE

СвежийSource: Space-Track

Эпоха: Sep 14, 2026, 04:10 UTC

1 12766U 81053DK  26257.17393899  .00000305  00000-0  31582-3 0  9990
2 12766  82.9470  53.1550 0100084  36.2996  86.7945 13.70465835244035

Отслеживайте COSMOS 1275 DEB в реальном времени с AllMySat

Download on the App Store